This is the latest recevied weather packets stored in our database for station/object DG7FDL-7. If no packets are shown the sender has not sent any weather packets the latest 1 day(s).
| Time | Temp. | Humidity | Pressure | Rain* | Wind** | Luminosity | Snow |
|---|---|---|---|---|---|---|---|
| 1778037792 | 22.78° C | 47% | 1006 hPa | - | - | - | - |
| 1778036892 | 22.78° C | 47% | 1005.9 hPa | - | - | - | - |
| 1778035993 | 22.78° C | 47% | 1006.1 hPa | - | - | - | - |
| 1778035092 | 22.78° C | 47% | 1006.2 hPa | - | - | - | - |
| 1778034197 | 22.78° C | 47% | 1006.4 hPa | - | - | - | - |
| 1778033292 | 23.33° C | 47% | 1006.5 hPa | - | - | - | - |
| 1778032390 | 22.78° C | 47% | 1006.7 hPa | - | - | - | - |
| 1778031490 | 23.33° C | 47% | 1006.7 hPa | - | - | - | - |
| 1778030600 | 23.33° C | 47% | 1006.9 hPa | - | - | - | - |
| 1778029690 | 23.33° C | 46% | 1006.9 hPa | - | - | - | - |
| 1778028792 | 23.33° C | 46% | 1007 hPa | - | - | - | - |
| 1778027897 | 23.33° C | 46% | 1007.1 hPa | - | - | - | - |
| 1778026990 | 23.33° C | 46% | 1007.2 hPa | - | - | - | - |
| 1778026099 | 23.89° C | 46% | 1007.3 hPa | - | - | - | - |
| 1778025192 | 23.89° C | 46% | 1007.5 hPa | - | - | - | - |
| 1778018892 | 24.44° C | 45% | 1008 hPa | - | - | - | - |
| 1778017990 | 25° C | 45% | 1008.2 hPa | - | - | - | - |
| 1778014394 | 24.44° C | 46% | 1008.4 hPa | - | - | - | - |
| 1778012590 | 24.44° C | 47% | 1008.5 hPa | - | - | - | - |
| 1778008990 | 22.78° C | 49% | 1008.3 hPa | - | - | - | - |
| 1778004490 | 23.89° C | 48% | 1007.6 hPa | - | - | - | - |
| 1778002690 | 22.78° C | 49% | 1007.8 hPa | - | - | - | - |
| 1777999985 | 23.89° C | 47% | 1007.5 hPa | - | - | - | - |
| 1777998190 | 23.89° C | 47% | 1007.6 hPa | - | - | - | - |
| 1777997285 | 23.89° C | 47% | 1007.6 hPa | - | - | - | - |
* Rain since midnight (hover to see other rain measurements)
** Current wind speed in m/s (hover to see current wind gust speed)